Theta_e
313 314 313 312 310 309 308 309 310 311 310 309 311 313 313 313 312 312 312 311 311 313 314 316 327 333 335 335 336 336 334 329 329 330 332 337 337 335 332 331 329 329 328 328
314 314 312 311 311 310 309 308 309 310 308 309 310 311 311 311 312 312 313 313 312 311 311 312 313 320 333 335 335 336 336 335 332 331 332 335 333 331 334 336 332 329 328 328
312 312 312 311 311 311 310 309 307 307 309 309 309 309 309 310 310 310 310 310 311 311 311 311 311 312 315 332 335 335 335 336 336 335 335 335 334 332 334 332 331 329 328 328
310 311 311 312 311 310 309 309 308 308 307 305 308 307 311 310 310 309 309 309 310 310 310 310 310 311 310 311 324 334 335 335 335 336 336 335 333 333 330 331 330 330 329 329
309 310 311 312 312 311 309 308 309 308 307 308 307 308 308 309 308 308 309 308 308 308 307 307 307 308 309 309 309 313 332 334 335 335 336 335 334 333 334 334 333 331 330 328
308 310 311 311 310 311 310 309 308 308 308 309 307 307 307 309 308 308 307 307 306 307 307 306 305 305 306 307 308 308 309 321 332 334 336 335 336 334 334 334 333 333 329 329
309 310 310 310 312 311 310 309 311 310 312 309 307 307 307 309 307 308 308 308 308 307 306 305 305 305 305 305 306 306 307 313 319 327 331 331 332 334 333 331 330 331 332 330
309 310 310 310 310 311 311 310 311 310 311 309 307 307 307 309 308 307 307 307 305 304 302 302 303 303 304 305 305 305 308 310 311 317 324 329 332 331 331 332 329 330 328 328
309 308 308 309 310 310 310 312 309 309 306 310 309 308 308 309 308 307 308 306 304 302 300 299 300 302 304 304 304 305 305 307 311 317 322 326 327 327 326 326 326 326 328 328
307 308 308 309 309 310 310 310 311 311 311 310 307 308 308 310 310 309 308 305 302 301 299 297 297 300 302 304 305 306 307 309 312 314 318 319 321 321 321 322 322 322 323 322
307 308 308 308 310 310 310 311 311 310 310 309 310 309 309 311 310 309 306 304 303 300 298 296 295 297 300 302 304 306 308 310 312 315 317 317 318 318 319 319 318 317 315 315
306 307 306 308 306 308 309 310 311 312 312 311 310 309 307 309 309 307 303 303 300 298 296 294 294 296 300 301 302 304 305 306 308 309 310 311 311 312 312 312 311 311 311 311
305 307 306 306 306 308 310 310 310 311 311 312 312 308 307 307 307 306 304 301 298 296 294 293 293 294 297 299 300 301 302 303 303 303 304 305 305 306 306 306 305 305 305 304
304 305 306 305 306 306 310 309 311 312 314 312 312 309 307 307 308 305 303 301 298 296 294 293 293 295 296 298 299 300 300 300 300 301 302 302 302 302 302 302 302 301 301 300
304 305 305 305 305 305 307 306 306 312 311 313 312 311 309 307 308 305 302 299 297 295 294 292 292 295 296 296 297 297 298 298 298 299 299 300 299 299 299 299 299 299 299 299
301 303 302 302 304 305 305 306 306 306 306 311 311 310 309 306 305 303 301 298 297 295 293 292 294 295 296 296 296 297 298 298 299 299 300 300 299 299 299 299 299 299 299 298
301 303 302 302 302 303 303 303 305 304 306 307 309 308 306 304 303 302 301 299 298 296 293 292 293 295 295 296 296 296 297 297 298 298 299 299 299 299 298 298 298 297 297 296
300 300 302 302 301 301 301 299 300 303 304 305 305 305 306 305 304 302 302 304 301 296 295 295 295 296 296 296 296 296 296 296 296 296 296 296 296 296 297 296 296 296 296 295
299 300 301 301 301 301 299 300 299 300 302 303 304 303 304 299 300 300 303 304 300 296 294 293 293 294 294 294 294 294 295 295 295 295 296 296 295 295 295 294 294 293 292 292
297 298 300 299 299 298 298 296 296 300 301 301 303 303 300 296 302 304 301 301 298 297 296 295 294 293 293 293 293 293 293 293 293 293 293 293 293 292 292 291 290 290 290 289
296 296 297 299 298 298 298 296 296 300 299 296 299 302 297 298 297 294 294 294 295 294 293 293 293 293 293 292 293 292 292 292 291 291 291 291 290 290 289 288 287 287 285 284
296 296 297 297 296 296 295 294 298 297 294 294 295 297 298 296 293 292 292 292 292 292 292 292 292 292 291 291 291 290 290 289 289 289 288 288 288 287 286 286 284 283 281 281
298 297 298 297 297 297 295 295 295 295 294 294 294 294 295 294 292 292 291 291 291 291 291 290 290 290 289 288 288 287 287 287 287 286 286 285 284 283 281 280 280 280 280 279
295 294 297 297 299 297 296 296 295 295 295 293 294 294 294 295 293 291 290 290 290 290 290 289 289 288 287 287 286 286 286 285 285 284 283 282 281 279 279 279 279 279 279 278
294 293 296 297 297 296 295 295 295 294 295 294 294 294 294 294 294 293 293 292 290 289 289 288 287 287 286 286 285 285 285 284 283 282 280 279 278 278 278 278 278 278 278 278
292 295 295 296 296 296 296 294 294 293 294 295 294 294 294 294 293 293 292 291 291 290 289 288 287 286 286 285 284 284 283 282 281 279 278 277 277 277 277 277 277 277 277 278
Wind_Speed
16 9 12 15 15 15 6 9 12 11 4 5 18 18 18 21 13 12 9 13 19 19 18 17 16 18 19 21 22 23 22 23 25 26 28 27 26 23 20 19 20 19 18 17
7 16 15 10 12 13 13 11 11 11 3 6 13 15 16 17 19 24 22 23 18 14 14 17 18 19 19 20 22 23 23 21 23 25 28 30 29 23 19 20 21 21 20 18
17 2 16 13 12 14 15 16 12 5 4 9 11 18 20 18 23 23 22 24 23 23 19 12 13 15 18 19 22 23 23 23 23 23 24 27 19 20 22 26 23 22 20 21
15 22 8 16 15 14 16 13 14 13 6 7 4 8 12 15 14 13 20 22 21 19 16 16 16 10 12 18 19 21 23 23 23 25 25 26 30 24 25 20 20 20 21 22
12 11 16 15 15 15 13 12 10 12 11 11 17 8 12 10 11 12 10 6 8 8 9 10 9 15 20 19 20 24 22 22 23 25 27 26 28 23 16 15 17 19 20 19
20 5 13 18 11 11 4 7 7 8 9 11 18 14 11 13 12 7 6 4 2 2 1 4 8 11 14 19 22 22 22 24 22 23 25 25 24 23 18 22 22 17 19 18
15 16 6 6 12 12 13 13 5 6 6 9 2 13 17 5 3 1 3 1 3 4 2 1 3 5 7 10 14 18 17 19 23 25 24 26 26 25 23 24 22 19 21 25
13 10 18 13 13 7 17 17 6 7 8 10 6 9 4 2 5 3 3 4 4 5 4 2 1 1 4 6 9 14 22 24 24 27 28 28 27 26 23 23 23 22 23 24
7 20 8 14 15 14 14 18 15 5 2 3 7 9 3 6 5 5 5 4 4 5 6 5 4 4 3 4 6 10 14 17 20 22 23 23 24 24 24 21 19 18 19 20
6 6 11 16 16 19 16 12 12 7 6 9 10 13 9 9 11 8 7 6 6 6 6 8 8 9 9 9 9 8 10 12 15 17 16 16 17 17 17 16 15 16 16 14
8 2 5 12 15 17 14 11 9 10 10 8 11 11 6 9 10 10 6 6 7 8 7 8 9 11 13 14 14 14 14 14 14 14 15 15 15 15 14 14 13 12 12 11
16 3 8 10 7 16 19 20 17 7 10 11 7 5 1 5 3 7 9 10 9 8 8 8 9 11 13 15 16 16 17 16 16 16 15 14 13 13 11 10 9 9 8 8
9 4 6 4 6 4 10 14 18 17 13 11 11 7 5 7 7 9 12 11 10 9 8 8 9 10 11 13 14 15 15 15 14 13 12 12 11 10 9 8 7 6 5 5
2 5 7 10 3 1 5 12 11 10 8 15 14 15 8 9 10 9 10 10 10 9 8 9 9 9 9 11 12 13 13 13 12 11 11 10 9 8 7 6 5 4 3 2
2 3 4 9 5 6 5 7 9 9 12 7 12 13 6 13 12 11 10 10 9 8 8 8 9 9 9 9 9 10 10 10 10 9 9 8 7 7 6 4 3 2 1 2
4 2 1 1 5 6 8 8 8 9 5 9 9 8 8 6 10 13 13 12 11 9 9 9 9 9 9 8 8 8 8 8 7 6 6 5 4 3 2 1 1 2 2 4
1 3 4 3 2 4 6 13 12 9 7 3 3 2 3 1 7 12 13 12 11 12 12 11 10 10 10 9 8 7 6 6 5 3 2 2 2 2 3 3 4 5 5 6
2 1 1 0 2 4 2 1 4 8 11 13 11 11 14 17 20 14 10 11 11 13 13 13 11 10 9 9 8 7 5 3 2 1 1 1 2 3 4 5 6 7 8 8
2 1 2 3 6 6 6 6 5 6 6 15 14 9 10 7 8 12 22 22 18 17 17 16 15 14 12 10 8 7 5 4 2 2 3 4 5 6 7 7 8 8 8 9
3 2 3 1 4 4 3 4 4 1 5 5 11 10 11 13 8 8 23 24 22 20 19 17 15 13 12 11 9 7 6 5 4 4 4 5 6 6 7 7 7 8 8 9
2 3 8 8 6 6 5 3 1 4 1 3 3 10 18 8 2 7 19 20 18 18 18 18 17 16 14 12 11 10 9 7 6 6 6 7 7 7 7 7 7 7 7 7
6 6 4 5 4 10 4 2 6 3 4 1 2 7 12 8 7 9 16 19 20 20 20 19 18 16 15 14 13 12 10 9 8 7 6 6 6 7 7 7 7 7 7 6
5 6 2 6 5 2 4 10 8 8 5 4 3 7 12 13 11 13 14 17 18 19 20 19 19 17 16 14 12 10 9 8 7 7 7 7 8 8 7 7 6 6 6 5
5 4 3 1 7 13 17 19 18 16 12 8 5 6 9 10 9 12 13 16 17 19 19 18 18 16 14 13 12 11 10 10 9 9 9 9 8 8 7 7 7 6 6 6
2 8 6 8 11 13 24 24 23 21 17 16 11 10 9 9 9 10 12 14 15 16 17 16 16 15 14 13 12 12 11 10 10 10 10 9 9 9 8 7 7 6 6 6
9 9 7 9 8 12 9 9 13 14 18 19 16 14 13 13 15 15 16 17 18 19 19 18 18 17 16 15 14 13 12 12 12 11 11 10 9 8 7 7 6 5 3 3
Wind_Direction
197 212 215 217 218 238 299 255 252 227 163 231 240 243 245 245 226 249 246 238 242 242 246 237 221 222 220 215 211 211 217 218 218 217 216 217 218 224 222 222 226 224 224 227
218 227 224 236 230 233 242 238 229 276 256 238 261 250 255 256 251 248 247 253 246 246 245 242 237 228 219 220 217 214 215 215 218 221 219 221 223 222 223 225 228 227 230 235
219 284 210 227 220 220 226 230 232 242 314 265 277 264 251 252 242 241 240 247 250 250 248 245 238 231 227 219 221 220 217 215 215 213 228 227 226 228 225 230 230 231 231 234
232 231 197 216 225 222 234 221 243 258 258 246 257 280 240 226 221 230 237 238 244 249 250 244 234 225 229 228 217 223 222 219 217 213 218 227 224 223 231 235 236 238 236 235
221 225 209 221 225 224 245 252 212 231 244 271 248 259 249 235 223 237 212 219 237 245 253 246 242 227 221 221 227 220 212 219 219 215 213 227 231 233 230 229 235 232 230 226
228 220 208 223 222 209 224 195 210 234 242 250 242 225 245 228 224 198 144 129 86 24 21 245 245 239 236 236 234 231 225 219 214 217 215 217 229 229 223 219 227 224 227 226
230 216 206 205 180 192 193 179 180 203 205 244 198 226 236 192 126 297 287 146 56 52 40 287 245 230 229 222 221 219 212 203 204 205 210 215 219 220 222 233 232 230 219 231
210 212 214 197 211 187 199 197 204 216 219 247 149 237 227 275 77 125 131 113 72 57 49 63 64 199 207 198 197 198 203 213 212 211 211 214 218 221 221 224 232 224 237 245
214 233 183 194 206 186 196 223 231 311 184 293 207 252 198 172 175 177 157 115 69 60 63 70 75 90 115 158 176 183 193 200 201 203 205 208 212 214 219 226 228 223 229 230
308 260 201 199 208 222 220 197 213 216 235 235 241 234 259 192 194 185 165 128 111 92 80 78 84 95 102 113 124 145 160 169 185 191 188 192 196 202 210 211 219 227 227 229
190 256 200 205 205 211 215 216 236 226 235 247 255 247 2 183 189 187 145 144 129 111 96 87 88 94 99 104 112 119 127 136 147 156 163 175 182 187 185 189 194 198 201 204
219 246 255 246 341 316 245 214 207 215 204 235 283 263 66 80 126 135 154 144 129 118 109 99 95 95 102 105 110 112 117 122 125 131 138 144 149 154 160 167 175 183 195 205
181 219 243 221 226 254 236 230 228 229 264 229 224 229 139 132 137 149 159 149 141 133 121 107 102 101 105 110 112 116 117 118 122 127 132 135 141 145 150 157 164 174 184 197
277 221 241 242 313 257 225 208 230 239 216 235 227 242 186 179 161 159 155 152 148 144 136 127 117 114 112 116 119 119 121 123 124 126 126 128 129 131 135 139 146 155 168 191
169 221 263 267 283 272 228 233 291 240 255 246 251 276 215 193 175 166 163 161 157 156 148 137 134 129 124 119 118 119 120 121 119 119 117 118 118 118 120 123 131 144 190 254
163 185 137 2 303 251 257 237 226 247 251 266 237 266 245 164 172 157 171 176 176 179 167 162 157 150 142 137 133 130 129 128 124 122 118 112 113 108 105 109 243 255 270 277
212 168 170 246 188 291 278 239 222 224 204 164 253 111 24 208 194 186 179 186 189 189 188 186 182 176 169 165 162 158 154 153 153 154 161 185 216 234 244 255 260 265 271 277
170 209 297 111 180 230 282 20 307 257 253 205 205 209 197 195 215 191 218 233 218 215 208 205 206 200 193 189 186 187 190 194 197 205 228 252 281 290 295 290 287 285 280 275
318 184 214 245 226 326 258 220 198 214 249 220 220 192 212 153 158 224 213 223 218 207 206 206 201 200 199 198 195 193 195 199 210 247 273 284 285 285 288 288 287 285 285 288
194 7 252 174 259 241 32 30 1 315 264 175 199 193 174 153 199 225 209 204 208 211 214 209 206 201 195 195 192 192 195 202 219 237 253 266 272 275 276 278 279 281 282 282
173 209 233 232 250 273 327 340 32 188 291 10 221 197 175 192 234 177 183 189 199 198 196 194 195 195 196 198 197 199 206 216 227 238 245 252 259 264 268 269 270 269 266 264
191 186 197 218 242 253 137 146 222 354 354 360 225 207 187 197 166 164 174 184 189 194 193 196 198 199 201 202 204 207 212 217 222 226 234 243 252 257 258 258 257 256 254 254
237 226 226 215 227 330 250 262 271 274 302 287 229 174 182 179 180 177 181 186 190 196 199 202 204 207 207 209 212 217 221 228 232 237 240 241 241 240 236 233 233 235 240 244
224 195 234 272 232 249 262 269 268 265 268 262 223 174 170 181 185 190 192 194 198 202 207 209 211 213 218 220 223 225 226 229 230 232 233 232 230 225 221 221 224 228 233 242
331 157 213 253 266 283 272 263 267 272 253 239 234 223 216 227 232 233 230 229 227 226 226 224 224 227 229 232 233 235 235 236 236 233 230 225 221 217 221 227 233 239 246 255
189 222 215 248 241 226 261 283 293 268 249 241 237 231 227 233 241 246 244 245 245 243 241 238 238 238 239 239 239 238 237 235 232 227 221 218 217 220 229 235 236 236 234 244